CAPE
749 895 1460 1288 749 425 514 590 459 383 58 4 0 0 0 3 0 0 0 0 3 8 12 2 19 16 29 25 34 34 16 25 15
1255 892 1003 1445 1064 635 393 509 523 373 402 14 0 0 0 0 0 3 0 0 2 9 8 9 5 13 15 27 35 21 9 14 15
1598 1412 1503 1682 1438 962 600 418 469 428 379 350 37 0 0 0 6 4 0 0 0 7 2 18 4 10 11 12 19 18 20 33 30
1995 1761 1641 1729 1661 1464 1009 627 412 324 536 760 153 26 54 0 1 8 0 0 1 4 2 19 16 17 9 26 8 20 21 15 29
2133 2077 1895 1732 1689 1755 1615 1110 727 469 607 902 352 438 234 0 0 16 7 6 0 0 4 5 13 23 12 13 7 8 8 16 21
1388 1332 1665 2030 2139 2052 1660 1507 1459 1196 954 1185 1062 838 32 0 10 18 198 10 0 0 0 2 10 22 12 17 12 12 12 13 19
880 1137 1529 1724 1881 1840 1711 1580 1336 1107 471 230 986 524 175 16 30 26 360 24 5 0 0 0 0 13 16 16 13 9 16 9 19
978 731 1106 959 1259 806 1235 1124 1063 812 487 317 236 135 34 25 49 190 526 115 15 0 0 0 0 10 14 17 12 11 12 12 19
1036 1054 855 490 660 521 573 858 819 698 630 448 325 222 97 56 54 90 611 326 54 0 0 0 0 1 5 13 10 6 8 11 23
954 896 998 980 643 333 8 309 821 758 699 663 406 242 186 94 50 37 483 420 251 45 38 5 5 0 0 0 5 4 2 8 13
306 565 748 768 856 718 573 746 641 642 487 374 260 193 161 59 51 53 118 432 470 137 97 55 17 1 0 0 1 1 2 6 8
18 98 114 428 795 713 716 715 562 524 438 358 238 160 161 150 92 54 70 95 256 287 172 71 58 23 0 0 0 0 2 3 3
0 6 92 143 345 779 721 706 708 503 336 333 326 195 251 217 214 220 142 124 23 164 282 126 125 59 13 0 0 0 1 2 5
0 0 2 54 190 332 565 569 687 680 551 316 330 345 360 316 258 335 192 153 60 21 157 152 146 31 60 30 6 0 9 0 3
0 0 0 5 4 74 427 343 500 622 581 475 317 276 390 354 256 220 180 147 87 49 47 8 9 30 102 87 50 35 38 28 16
0 0 0 0 58 33 85 316 448 424 596 448 336 248 215 219 207 218 216 131 86 43 52 7 7 14 7 56 56 57 68 72 59
0 0 0 0 3 67 110 122 251 434 612 434 340 266 185 118 209 230 191 160 145 88 38 22 16 4 2 6 4 21 53 69 71
0 0 0 0 0 80 173 202 263 277 544 550 376 109 106 167 225 221 209 115 121 68 35 20 9 3 4 25 0 16 27 35 83
0 0 0 0 0 28 164 245 204 248 308 463 505 218 135 118 124 184 210 88 88 115 15 14 32 7 40 43 1 14 33 32 44
0 0 0 0 0 52 111 120 265 173 225 332 354 363 248 167 99 141 103 162 188 10 26 17 38 2 1 12 24 45 27 63 80
CIN
-11 -1 -0 -0 -5 -20 -7 -0 -3 -5 -182 -282 -0 -0 -0 -40 -0 -0 -1 -0 -0 -0 -0 -0 -0 -0 -1 -0 -0 -0 -1 -0 -0
-0 -7 -1 -0 -0 -12 -30 -14 -4 -17 -5 -181 -0 -0 -0 -0 -0 -2 -0 -0 -0 -0 -0 -0 -0 -0 -1 -2 -1 -0 -0 -0 -0
-0 -2 -0 -0 -0 -1 -19 -25 -14 -14 -11 -11 -117 -0 -0 -0 -4 -5 -0 -0 -0 -0 -0 -0 -0 -0 -0 -0 -0 -1 -0 -0 -1
-0 -0 -0 -0 -0 -0 -0 -6 -23 -25 -3 -0 -47 -90 -86 -0 -2 -10 -3 -0 -0 -0 -0 -1 -0 -0 -0 -0 -0 -0 -0 -0 -0
-0 -0 -0 -0 -0 -0 -0 -0 -3 -10 -2 -0 -10 -14 -40 -0 -0 -7 -83 -46 -0 -0 -0 -0 -0 -0 -0 -0 -0 -0 -0 -0 -1
-31 -37 -22 -2 -0 -0 -0 -0 -0 -0 -0 -0 -0 -2 -28 -0 -10 -19 -51 -45 -0 -0 -0 -0 -0 -0 -0 -0 -0 -0 -0 -0 -1
-10 -30 -22 -10 -5 -5 -0 -0 -1 -1 -2 -36 -3 -16 -47 -51 -9 -57 -35 -40 -25 -0 -0 -0 -0 -0 -0 -0 -0 -0 -0 -0 -0
-40 -27 -26 -25 -16 -23 -12 -5 -1 -3 -9 -9 -15 -67 -66 -35 -2 -59 -33 -34 -34 -0 -0 -0 -0 -0 -0 -0 -0 -0 -0 -0 -0
-29 -22 -33 -23 -40 -10 -11 -32 -36 -23 -10 -25 -12 -22 -30 -24 -3 -70 -38 -23 -24 -0 -0 -0 -0 -0 -0 -0 -0 -0 -0 -0 -0
-4 -23 -21 -13 -8 -13 -7 -4 -24 -23 -20 -10 -5 -27 -26 -19 -3 -88 -43 -24 -12 -15 -3 -3 -11 -0 -0 -0 -0 -0 -0 -0 -0
-34 -2 -9 -19 -15 -19 -30 -34 -23 -9 -13 -10 -2 -32 -17 -20 -4 -4 -62 -26 -6 -13 -2 -1 -2 -4 -0 -0 -0 -0 -0 -0 -0
-70 -42 -30 -9 -5 -10 -24 -33 -34 -19 -17 -9 -5 -6 -16 -22 -12 -5 -22 -61 -18 -5 -0 -1 -0 -3 -0 -0 -0 -0 -0 -0 -0
-0 -18 -31 -46 -9 -3 -3 -29 -25 -26 -33 -22 -7 -55 -28 -28 -53 -79 -23 -13 -2 -15 -2 -0 -0 -0 -16 -0 -0 -0 -0 -0 -0
-0 -0 -60 -70 -20 -10 -3 -23 -15 -27 -13 -18 -24 -27 -20 -28 -32 -43 -25 -22 -7 -3 -9 -5 -3 -4 -2 -9 -1 -0 -3 -0 -0
-0 -0 -0 -120 -146 -64 -5 -13 -23 -18 -23 -22 -23 -21 -17 -15 -27 -12 -23 -15 -7 -5 -0 -17 -39 -8 -3 -5 -0 -2 -3 -0 -0
-0 -0 -0 -0 -51 -83 -45 -5 -0 -14 -26 -8 -13 -8 -2 -21 -21 -14 -21 -11 -7 -1 -0 -14 -16 -9 -16 -10 -15 -4 -0 -1 -0
-0 -0 -0 -0 -81 -40 -20 -26 -1 -0 -16 -7 -0 -0 -6 -44 -8 -5 -4 -0 -0 -1 -0 -1 -6 -0 -0 -9 -40 -34 -5 -0 -0
-0 -0 -0 -0 -2 -20 -19 -4 -4 -0 -3 -3 -2 -3 -0 -2 -0 -0 -0 -0 -0 -3 -25 -1 -2 -10 -1 -6 -9 -22 -23 -5 -0
-0 -0 -0 -0 -0 -13 -19 -19 -10 -5 -3 -1 -1 -6 -3 -3 -0 -1 -0 -2 -24 -0 -15 -1 -0 -4 -0 -0 -2 -8 -10 -9 -1
-0 -0 -0 -0 -0 -16 -16 -10 -7 -13 -7 -7 -2 -0 -10 -0 -19 -15 -4 -1 -0 -3 -16 -3 -0 -2 -6 -1 -0 -0 -2 -0 -0
Wind_Speed
18 18 20 22 23 23 21 20 19 20 nan nan nan nan nan nan nan nan nan nan nan nan nan nan nan nan nan nan nan nan nan nan nan
21 22 22 25 26 26 26 24 23 21 22 nan nan nan nan nan nan nan nan nan nan nan nan nan nan nan nan nan nan nan nan nan nan
19 20 24 26 27 28 28 27 26 25 24 25 nan nan nan nan nan nan nan nan nan nan nan nan nan nan nan nan nan nan nan nan nan
20 21 21 24 27 27 29 28 28 28 26 29 28 nan nan nan nan nan nan nan nan nan nan nan nan nan nan nan nan nan nan nan nan
25 25 24 24 24 26 28 30 29 30 30 33 31 29 25 nan nan nan nan nan nan nan nan nan nan nan nan nan nan nan nan nan nan
30 27 29 31 31 29 28 29 30 31 31 32 32 32 nan nan nan nan 39 nan nan nan nan nan nan nan nan nan nan nan nan nan nan
30 34 34 33 36 38 34 31 29 29 35 34 31 35 32 nan nan nan 41 nan nan nan nan nan nan nan nan nan nan nan nan nan nan
40 40 36 41 38 42 42 38 34 37 35 36 37 35 nan nan nan 37 42 39 nan nan nan nan nan nan nan nan nan nan nan nan nan
43 43 40 39 44 38 42 46 30 33 33 31 35 34 nan nan nan nan 43 41 nan nan nan nan nan nan nan nan nan nan nan nan nan
48 45 42 43 44 48 nan 12 37 39 36 30 35 33 32 nan nan nan 41 41 34 nan nan nan nan nan nan nan nan nan nan nan nan
51 50 47 44 45 46 46 45 47 40 38 37 38 37 36 nan nan nan 34 39 35 34 nan nan nan nan nan nan nan nan nan nan nan
nan nan 52 50 49 46 47 46 45 45 40 37 37 40 40 43 nan nan nan nan 38 33 39 nan nan nan nan nan nan nan nan nan nan
nan nan nan 57 55 55 53 50 48 46 46 41 39 42 39 40 45 46 41 39 nan 35 37 39 41 nan nan nan nan nan nan nan nan
nan nan nan nan 63 60 58 56 54 50 48 43 43 44 42 40 41 45 43 43 nan nan 36 32 32 nan nan nan nan nan nan nan nan
nan nan nan nan nan nan 64 61 57 53 51 46 43 44 42 39 38 42 43 39 nan nan nan nan nan nan 31 nan nan nan nan nan nan
nan nan nan nan nan nan nan 68 63 59 55 52 53 51 47 42 40 40 43 39 nan nan nan nan nan nan nan nan nan nan nan nan nan
nan nan nan nan nan nan 72 70 68 66 62 61 58 51 51 48 45 44 48 47 43 nan nan nan nan nan nan nan nan nan nan nan nan
nan nan nan nan nan nan 71 72 69 65 64 58 61 57 52 52 48 48 50 54 53 nan nan nan nan nan nan nan nan nan nan nan nan
nan nan nan nan nan nan 68 66 63 63 59 60 56 56 56 51 52 55 57 nan nan 48 nan nan nan nan nan nan nan nan nan nan nan
nan nan nan nan nan nan 69 62 61 60 54 53 56 48 51 41 nan 63 60 60 56 nan nan nan nan nan nan nan nan nan nan nan nan
Wind_Direction
308 307 305 305 303 303 301 295 293 294 nan nan nan nan nan nan nan nan nan nan nan nan nan nan nan nan nan nan nan nan nan nan nan
313 309 306 306 308 305 303 302 299 295 297 nan nan nan nan nan nan nan nan nan nan nan nan nan nan nan nan nan nan nan nan nan nan
305 301 303 308 309 308 306 304 302 299 297 299 nan nan nan nan nan nan nan nan nan nan nan nan nan nan nan nan nan nan nan nan nan
301 305 303 305 310 311 309 307 304 300 298 305 302 nan nan nan nan nan nan nan nan nan nan nan nan nan nan nan nan nan nan nan nan
294 301 306 307 306 307 309 308 305 303 301 302 303 302 300 nan nan nan nan nan nan nan nan nan nan nan nan nan nan nan nan nan nan
300 306 313 317 313 307 303 302 299 298 297 299 301 303 nan nan nan nan 300 nan nan nan nan nan nan nan nan nan nan nan nan nan nan
283 295 315 314 312 306 299 294 291 291 281 286 297 289 295 nan nan nan 303 nan nan nan nan nan nan nan nan nan nan nan nan nan nan
280 280 283 291 302 292 283 286 280 287 286 288 294 296 nan nan nan 297 303 304 nan nan nan nan nan nan nan nan nan nan nan nan nan
277 278 283 276 285 282 300 281 287 293 296 295 293 297 nan nan nan nan 305 304 nan nan nan nan nan nan nan nan nan nan nan nan nan
273 271 271 278 280 282 nan 310 304 298 297 292 290 295 290 nan nan nan 302 302 299 nan nan nan nan nan nan nan nan nan nan nan nan
275 274 271 267 272 275 280 282 288 284 288 286 286 295 294 nan nan nan 285 294 293 299 nan nan nan nan nan nan nan nan nan nan nan
nan nan 270 270 267 268 274 278 280 284 281 281 285 288 287 283 nan nan nan nan 286 293 305 nan nan nan nan nan nan nan nan nan nan
nan nan nan 268 264 265 266 268 271 274 277 276 276 281 279 279 281 283 282 279 nan 285 298 303 308 nan nan nan nan nan nan nan nan
nan nan nan nan 263 264 264 264 265 265 270 274 275 278 279 277 271 280 276 282 nan nan 294 297 316 nan nan nan nan nan nan nan nan
nan nan nan nan nan nan 260 262 262 264 264 268 268 265 264 269 271 274 274 281 nan nan nan nan nan nan 304 nan nan nan nan nan nan
nan nan nan nan nan nan nan 254 256 258 261 259 258 258 256 259 269 269 271 274 nan nan nan nan nan nan nan nan nan nan nan nan nan
nan nan nan nan nan nan 255 254 253 254 256 258 260 259 259 251 256 261 266 266 265 nan nan nan nan nan nan nan nan nan nan nan nan
nan nan nan nan nan nan 251 253 252 251 251 254 256 257 259 259 254 250 257 266 262 nan nan nan nan nan nan nan nan nan nan nan nan
nan nan nan nan nan nan 247 248 250 250 250 247 252 253 254 260 260 248 246 nan nan 265 nan nan nan nan nan nan nan nan nan nan nan
nan nan nan nan nan nan 241 239 244 246 247 249 245 246 248 249 nan 249 250 246 246 nan nan nan nan nan nan nan nan nan nan nan nan